EW7341 Weather Reports


Display with metric or nautical units.
time (UTC)temp
F
wind
direction
speed
MPH
gust
MPH
rain 1hr
in
rain 24hr
in
rain mn
in
humidity
%
barometer
mb
20260506003102 57 65 3.0 8.0 0.00 0.00 0.00 74 1005.1
20260506001510 57 8 1.0 9.0 0.00 0.00 0.00 73 1005.0
20260506000022 58 26 2.0 11.0 0.00 0.00 0.00 72 1004.6
20260505234521 59 99 2.0 8.0 0.00 0.00 0.00 72 1004.7
20260505233104 60 55 3.0 9.0 0.00 0.00 0.00 71 1004.8
20260505231508 61 53 3.0 7.0 0.00 0.00 0.00 69 1004.6
20260505230021 63 55 2.0 10.0 0.00 0.00 0.00 68 1004.8
20260505224520 64 70 3.0 10.0 0.00 0.00 0.00 65 1004.4
20260505223102 66 53 2.0 10.0 0.00 0.00 0.00 64 1004.3
20260505221509 67 86 3.0 8.0 0.00 0.00 0.00 63 1003.8
20260505220042 67 6 3.0 11.0 0.00 0.00 0.00 63 1003.9
20260505214509 69 327 2.0 8.0 0.00 0.00 0.00 62 1004.2
20260505213109 69 319 2.0 7.0 0.00 0.00 0.00 60 1003.9
20260505211518 69 36 3.0 7.0 0.00 0.00 0.00 60 1003.8
20260505210010 69 313 3.0 10.0 0.00 0.00 0.00 59 1003.6
20260505204511 70 58 1.0 6.0 0.00 0.00 0.00 59 1003.7
20260505203114 70 293 2.0 8.0 0.00 0.00 0.00 60 1003.5
20260505201503 70 330 3.0 8.0 0.00 0.00 0.00 59 1003.4
20260505200011 70 55 2.0 9.0 0.00 0.00 0.00 59 1003.3
20260505194522 70 328 1.0 8.0 0.00 0.00 0.00 62 1003.2
20260505193103 70 356 2.0 10.0 0.00 0.00 0.00 60 1003.3
20260505191514 70 320 5.0 8.0 0.00 0.00 0.00 60 1003.4
20260505190016 71 303 4.0 8.0 0.00 0.00 0.00 60 1003.2
20260505184526 70 321 3.0 9.0 0.00 0.00 0.00 61 1003.3
20260505183007 72 314 6.0 11.0 0.00 0.00 0.00 59 1003.0
20260505181514 72 336 5.0 10.0 0.00 0.00 0.00 59 1002.4
20260505180024 72 308 6.0 12.0 0.00 0.00 0.00 60 1002.4
20260505174508 72 304 6.0 10.0 0.00 0.00 0.00 61 1002.4
20260505173104 72 322 6.0 12.0 0.00 0.00 0.00 62 1002.0
20260505171514 72 311 5.0 10.0 0.00 0.00 0.00 64 1001.8
20260505170022 72 321 6.0 11.0 0.00 0.00 0.00 65 1001.7
20260505164505 73 322 5.0 12.0 0.00 0.00 0.00 62 1001.1
20260505163110 75 355 5.0 9.0 0.00 0.00 0.00 63 1000.7
20260505161515 76 289 3.0 7.0 0.00 0.00 0.00 62 1000.8
20260505153124 77 348 5.0 10.0 0.00 0.00 0.00 35 999.7
20260505151519 78 314 4.0 15.0 0.00 0.00 0.00 39 999.2
20260505124503 68 218 4.0 9.0 0.00 0.00 0.00 81 997.5
20260505123109 68 198 6.0 11.0 0.00 0.00 0.00 81 997.4
20260505121515 68 252 4.0 11.0 0.00 0.00 0.00 80 997.4
20260505120021 68 192 6.0 12.0 0.00 0.00 0.00 80 997.3
20260505114621 69 189 8.0 15.0 0.00 0.00 0.00 80 997.0
20260505113116 69 176 8.0 13.0 0.00 0.00 0.00 79 997.0
20260505111523 69 192 7.0 14.0 0.00 0.00 0.00 79 997.0
20260505101522 71 205 7.0 13.0 0.00 0.00 0.00 76 996.8
20260505100010 71 208 8.0 15.0 0.00 0.00 0.00 75 996.6
20260505094512 72 212 9.0 14.0 0.00 0.00 0.00 75 996.6
20260505093114 72 183 9.0 15.0 0.00 0.00 0.00 74 996.8
20260505091521 73 193 7.0 13.0 0.00 0.00 0.00 73 996.7
20260505090014 73 214 9.0 16.0 0.00 0.00 0.00 72 996.9
20260505084533 74 200 8.0 17.0 0.00 0.00 0.00 71 996.8
20260505083005 74 217 9.0 15.0 0.00 0.00 0.00 71 996.9
20260505081514 74 210 9.0 16.0 0.00 0.00 0.00 70 997.0
20260505080019 74 193 10.0 18.0 0.00 0.00 0.00 69 997.1
20260505074522 75 198 9.0 16.0 0.00 0.00 0.00 69 997.2
20260505073108 75 219 9.0 16.0 0.00 0.00 0.00 69 997.2
20260505071513 75 209 9.0 21.0 0.00 0.00 0.00 68 997.6
20260505070033 76 207 10.0 18.0 0.00 0.00 0.00 68 997.7
20260505064524 76 220 8.0 15.0 0.00 0.00 0.00 68 997.9
20260505063107 76 206 8.0 18.0 0.00 0.00 0.00 68 998.1
20260505061519 75 201 7.0 12.0 0.00 0.00 0.00 70 998.3
20260505060028 74 190 5.0 10.0 0.00 0.00 0.00 71 998.2
20260505054507 74 209 4.0 8.0 0.00 0.00 0.00 73 998.4
20260505053118 74 190 3.0 9.0 0.00 0.00 0.00 73 998.4
20260505051520 74 176 4.0 9.0 0.00 0.00 0.00 73 998.4
20260505041502 76 200 4.0 18.0 0.00 0.00 0.00 68 998.7
20260505040011 77 181 5.0 14.0 0.00 0.00 0.00 67 998.5
20260505034519 77 249 6.0 12.0 0.00 0.00 0.00 67 998.7
20260505033004 76 253 4.0 13.0 0.00 0.00 0.00 67 998.7
20260505031512 77 211 3.0 12.0 0.00 0.00 0.00 67 998.6
20260505030019 77 212 4.0 13.0 0.00 0.00 0.00 67 998.4
20260505024503 77 176 3.0 14.0 0.00 0.00 0.00 66 998.3
20260505023107 78 241 5.0 11.0 0.00 0.00 0.00 65 998.3
20260505021514 78 140 6.0 13.0 0.00 0.00 0.00 64 998.2
20260505020009 79 132 3.0 11.0 0.00 0.00 0.00 62 998.1
20260505014508 79 184 5.0 15.0 0.00 0.00 0.00 61 998.0
20260505013110 79 201 3.0 11.0 0.00 0.00 0.00 61 997.9
20260505011530 80 122 4.0 13.0 0.00 0.00 0.00 60 997.9
20260505010013 81 213 4.0 13.0 0.00 0.00 0.00 59 997.9
20260505004508 82 154 4.0 12.0 0.00 0.00 0.00 58 998.0